ANIK F3

Last updated on Tue Sep 22 2026 00:03:11 GMT+0000 (Coordinated Universal Time)

1 31102U 07009A 26264.49130922 -.00000004 00000+0 00000+0 0 9996 2 31102 1.4392 82.5366 0002724 86.9674 249.0551 1.00271831 47520
UTC large
Height (km)
Speed (km/s)
/
Latitude / Longitude
Inclination (degrees)
Orbital Period (minutes)
Azimuth
Elevation
Range (km)
Doppler Factor

Next 0 passes for location: London (51.5072 / 0.1276)

No passes found over London.
ANIK F3